Theta_e
326 329 329 330 330 330 332 333 333 331 327 321 322 323 323 327 329 330 330 329 328 327 328 329 328 329 330 330 330 332 334 335 336 330 335 341 331 333 338 338 341 341 341 340 339 338 339 339 336 337 337 335 336 334 327 328 334 335 332 331 334 336 336 335 335 335 335 330 324 327 332 333 333 333 333 333 332 333 333 332 332 332 331 330 330 330 330 330 329 329 328 328 328 328 328 327 327
327 328 329 330 330 332 334 335 332 327 324 319 321 322 323 328 329 330 330 330 329 328 329 330 330 330 330 329 329 332 336 336 336 333 334 336 333 336 338 339 341 340 342 340 339 338 338 338 335 336 335 335 334 329 325 330 335 335 333 330 333 335 335 335 335 335 334 329 324 327 332 333 333 333 333 333 332 332 332 332 331 331 331 330 330 330 329 329 329 329 328 327 327 327 327 327 327
328 329 329 331 331 333 335 336 332 324 321 319 320 324 325 327 328 331 330 330 331 331 331 330 331 330 329 330 329 332 338 337 335 334 334 335 335 336 338 339 340 341 341 340 339 339 338 336 334 334 333 333 330 326 327 333 335 335 334 331 332 335 334 334 334 335 334 329 324 326 332 333 333 333 332 332 332 332 332 331 331 331 331 330 329 329 329 329 328 328 327 327 327 327 326 327 326
328 329 330 331 333 335 338 337 335 327 322 319 320 326 327 326 327 331 332 332 332 331 331 330 331 330 329 331 329 332 337 336 336 335 335 336 334 336 339 339 340 342 340 339 339 339 338 335 334 333 333 332 327 328 331 335 335 334 334 332 332 334 335 335 335 335 334 330 324 325 332 332 332 332 332 332 332 332 332 331 331 331 331 330 329 328 328 328 328 328 327 327 327 327 327 326 326
327 331 330 331 335 335 337 337 336 329 324 323 322 328 328 326 327 332 333 332 332 332 331 328 329 330 330 330 330 335 336 335 335 333 335 334 332 338 339 339 340 341 340 340 339 339 338 336 334 333 334 332 326 330 333 334 334 333 334 333 333 335 335 335 335 335 333 330 324 324 330 333 332 332 332 331 331 332 331 331 331 331 331 330 329 328 328 328 327 327 327 326 326 327 327 326 325
328 331 331 332 335 334 335 334 332 329 329 330 326 329 328 326 326 331 333 332 332 332 331 329 327 328 330 331 334 336 336 337 335 334 335 332 332 338 339 339 339 340 339 339 338 338 338 336 334 331 332 332 326 330 333 334 334 333 335 335 335 336 336 336 335 335 334 331 325 322 327 332 332 332 331 331 331 332 331 332 331 331 330 329 329 328 328 328 328 328 327 326 326 326 326 326 324
328 331 333 335 336 334 337 333 331 331 332 333 330 329 330 327 326 329 333 332 332 332 330 331 327 327 330 332 336 336 335 337 336 335 334 331 334 338 338 338 339 339 339 338 337 337 337 336 333 330 331 331 327 330 334 334 334 334 336 336 335 336 336 336 335 336 335 332 327 322 323 329 332 332 332 331 331 331 331 331 331 331 330 330 329 329 328 327 327 327 326 326 326 326 326 326 323
329 333 334 337 339 337 338 333 333 336 333 333 331 329 328 328 326 327 331 331 332 332 330 330 327 329 331 329 335 336 334 337 337 336 333 331 335 338 337 337 338 338 338 338 337 337 336 335 334 329 329 329 327 332 334 334 334 334 336 336 335 336 335 335 336 336 335 333 330 324 320 324 330 331 332 331 331 331 331 330 330 331 330 329 329 328 327 326 326 325 326 325 325 326 325 325 323
330 333 335 337 339 337 335 333 334 337 334 333 332 330 329 328 326 326 329 329 329 330 329 329 328 329 329 329 336 336 334 336 336 335 333 332 335 336 337 337 337 337 338 338 338 337 334 334 333 328 327 327 328 333 334 334 334 333 335 336 336 336 336 335 335 335 335 334 331 327 321 322 327 330 331 331 330 331 330 330 330 330 329 329 328 327 326 325 326 325 324 324 324 324 324 325 323
331 333 336 337 337 334 330 331 334 337 335 334 333 331 329 328 327 325 328 330 327 328 329 329 329 329 326 330 338 337 334 335 335 336 334 333 334 335 336 336 337 337 338 338 337 337 335 333 331 327 326 328 331 332 333 334 334 334 333 334 335 335 335 334 334 334 335 335 332 329 325 322 324 329 331 331 331 330 330 330 329 329 329 329 328 327 326 325 325 325 322 321 321 321 322 323 322
334 334 337 337 334 330 328 329 334 337 335 334 332 328 328 327 326 326 327 329 326 329 331 328 328 327 323 332 339 337 334 334 334 335 335 334 334 333 335 335 336 337 337 338 337 337 336 333 330 327 326 330 333 332 332 333 334 334 332 332 333 334 334 334 334 334 335 335 333 331 328 323 322 327 330 330 330 330 330 330 329 329 329 329 328 327 326 324 325 324 321 320 319 319 319 320 320
335 337 338 337 333 332 330 330 333 336 336 333 330 327 326 326 326 326 327 328 327 328 330 327 327 325 323 334 339 336 335 335 335 335 335 334 333 332 334 335 336 336 336 338 338 337 335 333 331 327 326 330 334 333 331 331 332 333 332 332 332 332 333 333 333 334 335 335 334 332 330 327 322 323 327 329 329 330 330 329 329 329 328 328 328 327 326 324 323 321 320 319 319 319 319 319 319
335 338 337 336 336 335 334 333 335 336 336 331 328 327 327 326 327 328 328 328 327 328 328 326 326 325 327 337 339 335 336 336 335 335 335 334 332 333 334 336 335 335 336 337 337 336 335 334 332 328 326 330 333 333 332 330 331 332 332 333 333 331 332 333 332 334 336 335 334 333 332 330 325 322 322 325 328 329 329 329 329 329 328 327 327 327 326 325 322 320 319 319 319 319 319 319 319
333 336 337 337 338 336 335 334 335 335 332 329 328 327 328 328 328 328 327 329 329 330 330 326 326 327 327 334 337 336 336 336 335 335 334 333 333 333 333 334 335 334 335 335 336 336 335 333 332 329 326 329 332 332 332 332 331 332 333 333 333 332 331 332 331 333 336 336 335 333 333 331 328 325 319 320 323 325 327 328 328 328 327 326 327 326 325 324 322 320 320 319 319 319 319 319 319
332 334 336 337 337 336 335 334 334 333 331 329 329 327 328 327 327 327 327 329 330 330 329 327 327 329 327 332 338 338 336 335 335 334 334 333 333 333 333 333 334 334 334 334 334 334 334 333 332 331 327 327 331 331 331 332 331 332 333 333 334 332 331 331 331 333 335 336 335 333 333 332 330 328 323 319 319 320 325 327 327 328 327 326 326 325 325 323 322 320 319 319 319 319 319 319 319
332 333 336 337 335 334 335 335 335 335 332 329 328 329 329 327 326 327 326 327 329 329 327 328 329 328 329 335 339 337 336 335 334 333 333 333 333 333 333 333 333 333 333 333 333 333 334 333 332 332 330 328 330 330 329 330 330 331 333 333 334 333 332 331 330 333 335 335 334 334 333 332 331 330 328 325 321 319 322 324 325 326 326 326 325 325 325 322 320 320 319 319 319 319 319 319 319
330 333 336 336 334 333 334 335 335 334 332 329 328 330 330 327 326 326 326 325 326 328 327 329 330 329 332 337 338 336 335 334 333 333 333 332 332 332 333 333 332 333 333 332 332 333 332 333 333 333 331 330 330 330 330 330 329 330 332 333 334 333 333 332 331 332 334 335 334 334 333 332 331 331 330 328 325 320 318 320 323 324 325 326 325 325 324 322 320 319 319 319 319 319 319 319 319
331 335 336 335 335 334 334 334 333 334 333 330 328 329 330 328 327 325 326 327 326 328 327 328 331 331 333 336 337 336 335 334 334 333 333 332 332 332 332 332 332 332 332 332 332 332 332 332 332 332 332 331 331 330 331 332 331 330 330 332 333 332 332 332 332 331 332 333 334 334 333 332 331 331 330 328 328 324 319 318 320 321 322 324 323 323 322 321 320 318 319 319 319 319 319 319 320
331 335 336 334 335 334 333 333 332 333 332 331 329 329 329 329 329 327 328 330 329 329 329 328 330 333 334 335 336 335 334 334 334 334 333 332 332 332 331 331 332 332 332 332 332 332 331 332 331 332 332 331 331 330 331 332 332 331 329 330 331 332 331 331 332 331 331 332 332 333 332 332 332 332 331 329 329 328 324 320 319 319 319 321 321 320 320 320 318 317 318 319 319 319 319 321 324
330 333 335 334 334 332 332 331 331 332 332 332 331 330 329 329 329 329 330 331 332 332 332 330 329 333 334 335 336 335 334 334 334 334 333 332 332 332 331 331 331 331 332 332 332 331 331 331 331 331 331 330 331 331 331 332 332 332 330 330 331 331 331 331 331 331 331 331 331 332 331 331 332 333 332 331 330 329 327 325 321 319 318 318 319 319 318 318 317 317 318 319 319 319 319 323 325
330 331 333 332 332 332 331 330 331 331 331 331 331 331 330 330 329 329 330 331 332 332 330 329 328 332 335 334 336 335 334 334 334 333 333 332 332 332 332 332 331 331 332 332 331 331 331 331 331 331 331 331 330 330 330 331 331 332 331 330 332 332 331 331 331 331 331 331 331 331 330 330 332 331 331 331 330 329 328 327 325 323 320 318 317 317 317 317 317 317 317 318 319 319 320 323 325
329 330 331 330 330 331 330 330 330 330 330 331 331 331 330 330 330 329 330 331 332 331 329 328 327 331 334 334 336 336 335 334 333 333 333 333 332 332 332 332 332 331 331 331 331 331 331 331 331 331 331 331 330 330 330 330 331 331 330 330 332 333 333 332 332 331 332 332 332 331 329 330 331 331 331 331 330 329 328 327 327 325 324 321 320 319 318 319 321 318 316 317 318 319 321 323 325
328 329 328 328 329 329 329 329 330 330 330 331 330 330 330 330 330 329 330 330 331 330 329 329 326 328 332 334 336 336 336 335 334 333 334 333 333 333 332 332 332 331 331 331 331 331 331 331 331 331 331 331 330 330 330 329 329 330 330 329 331 333 333 333 332 331 332 333 333 332 330 330 331 331 331 330 329 329 328 328 328 327 325 324 325 324 322 323 325 322 320 320 320 321 324 325 325
327 328 328 327 328 328 328 329 329 330 330 330 329 330 330 330 330 329 330 330 330 330 328 328 327 326 328 332 336 336 336 336 335 334 334 334 334 333 333 333 332 332 331 331 331 331 331 330 331 331 331 331 330 330 330 330 329 329 330 329 330 331 332 333 333 333 333 334 333 333 331 331 331 330 330 330 329 327 328 329 329 328 327 326 327 327 324 325 326 324 324 324 323 323 325 325 324
326 327 327 326 327 327 328 329 329 329 330 330 329 330 330 330 329 329 330 330 329 330 328 328 328 328 326 328 334 336 335 335 335 335 335 335 335 334 334 333 332 332 332 331 331 331 331 330 331 331 331 331 330 330 330 330 329 329 330 330 330 330 332 332 333 333 333 334 334 333 332 331 331 331 329 330 330 328 327 329 329 328 328 327 327 327 325 325 326 325 324 324 325 324 324 323 322
324 326 326 325 327 327 327 327 327 328 329 330 330 330 330 329 329 329 330 329 329 330 330 329 328 329 329 328 331 333 334 335 335 335 335 335 335 335 335 334 332 332 332 331 331 331 330 330 330 331 331 331 330 330 330 330 330 329 330 330 330 329 330 331 332 332 332 333 333 332 332 331 330 330 328 329 329 328 328 328 328 328 328 328 327 326 325 324 325 325 325 325 325 324 324 323 323
324 324 325 325 326 326 326 326 325 327 328 329 330 330 330 329 330 330 330 329 330 330 330 330 330 330 330 329 329 329 330 332 334 335 335 335 335 335 335 335 333 333 332 332 331 330 330 330 329 329 330 331 330 330 330 330 330 330 329 329 329 329 329 330 330 330 331 332 332 332 331 330 329 329 328 328 328 328 328 328 327 328 328 328 326 325 324 324 325 326 325 325 325 325 324 324 324
324 324 324 324 325 325 325 326 326 326 327 328 328 329 330 329 330 330 330 330 330 330 330 330 330 331 331 331 331 331 329 329 332 334 335 335 335 335 335 335 334 333 333 332 331 330 330 330 329 328 329 330 331 330 330 329 329 330 329 328 328 329 329 329 329 329 329 330 331 331 330 330 329 328 328 329 329 327 328 328 327 327 327 328 326 325 324 323 324 325 325 326 325 325 324 325 325
323 324 325 325 324 324 325 325 326 326 327 326 327 329 330 329 329 328 328 329 330 330 330 329 329 330 331 331 331 332 330 328 330 332 334 335 335 336 336 335 335 334 333 332 332 331 330 331 330 329 329 330 330 330 330 329 329 330 330 329 328 328 329 329 328 328 328 329 329 329 330 330 329 328 327 329 329 328 327 327 327 326 326 327 327 325 324 323 324 324 324 325 325 324 324 324 324
323 323 324 325 326 326 324 324 324 324 326 325 328 331 330 327 328 328 327 328 328 329 329 329 329 328 330 331 331 332 330 329 329 330 332 334 335 336 335 335 335 335 334 333 332 332 331 331 330 330 329 329 329 329 329 330 330 330 330 329 328 328 328 328 328 328 327 328 328 328 328 328 328 327 327 328 329 327 327 327 327 326 325 326 326 325 323 323 322 323 323 323 324 324 323 322 322
324 324 325 326 327 327 323 322 323 324 325 324 327 330 329 326 326 326 326 327 328 329 330 329 329 328 329 331 332 333 331 329 329 329 331 333 335 336 335 335 335 335 334 333 333 332 331 331 330 330 329 329 329 329 329 330 329 329 329 329 329 328 328 328 328 328 327 327 327 327 327 327 327 327 327 327 328 327 327 327 326 327 326 325 325 324 324 322 321 322 321 322 322 322 321 321 320
323 326 327 327 327 326 322 322 323 324 324 323 326 329 329 327 326 325 324 326 327 328 330 330 329 329 330 331 331 332 331 329 329 330 330 331 333 335 335 335 335 336 335 334 333 332 332 331 331 330 329 329 329 328 329 329 329 329 329 329 329 328 328 328 328 328 328 328 327 327 327 327 327 327 326 326 327 327 327 326 326 326 326 325 324 324 324 323 321 321 321 321 322 322 321 321 320
323 325 327 327 327 325 323 323 322 322 323 323 325 328 328 327 326 325 324 325 325 326 327 328 330 330 330 331 330 331 332 331 331 330 330 330 332 334 334 334 335 335 335 334 334 333 332 332 331 330 329 329 329 328 328 328 329 329 329 329 329 328 328 327 328 328 328 328 327 327 327 327 327 326 326 326 326 326 326 326 325 325 325 324 325 324 323 323 322 321 321 322 322 322 322 322 322
324 325 326 326 325 324 323 323 323 323 323 324 325 327 328 327 326 325 324 325 326 326 326 326 329 330 330 330 330 330 331 333 333 330 331 331 331 333 333 333 334 334 335 334 334 333 332 332 332 330 330 329 328 329 328 328 328 328 328 328 328 328 327 327 327 327 327 327 327 327 327 326 326 326 326 325 325 325 326 326 325 324 324 323 324 324 323 322 321 321 321 322 322 322 323 323 323
324 325 325 325 323 323 322 322 323 324 323 324 325 327 327 327 327 325 324 325 325 326 327 328 329 329 330 329 330 331 331 333 333 329 330 331 331 332 332 332 333 334 335 334 334 334 333 332 332 331 330 329 329 329 329 328 328 328 328 328 327 327 327 327 327 327 327 327 327 327 326 326 326 326 326 325 324 324 325 325 325 324 323 323 323 323 323 322 321 320 320 321 322 322 322 323 323
322 323 323 324 323 323 322 322 323 324 326 326 325 326 327 327 326 326 325 325 325 325 325 327 328 327 328 328 328 328 330 331 329 328 329 331 331 331 331 331 332 333 334 334 334 334 334 333 332 331 330 330 329 329 329 328 328 327 327 327 327 327 327 327 327 327 326 326 326 327 327 326 326 326 325 325 324 324 324 324 325 325 324 324 323 323 323 322 321 320 320 320 321 322 322 323 323
322 322 322 322 323 323 323 323 323 324 326 327 327 327 326 326 326 325 326 326 325 325 325 325 325 326 326 327 327 327 328 328 327 327 328 329 331 332 332 331 331 332 333 334 334 334 334 334 333 332 331 330 329 329 329 328 328 327 327 327 327 327 328 327 327 327 327 326 326 326 326 326 326 325 325 325 324 323 323 323 324 325 324 324 323 322 322 321 320 320 320 320 321 322 323 324 324
322 323 323 323 323 323 323 323 323 323 325 326 327 326 325 325 325 324 325 325 325 324 325 325 324 325 325 327 328 327 327 327 329 329 327 326 329 331 332 332 331 332 332 332 334 334 334 334 333 332 331 330 330 329 329 329 328 328 327 327 327 327 327 327 327 326 326 326 325 325 325 325 325 325 325 324 323 323 322 323 324 324 324 324 323 323 322 321 320 320 320 320 320 321 321 323 324
323 324 323 324 323 322 323 321 321 322 323 324 325 324 323 323 323 323 323 323 323 323 323 324 325 325 324 325 326 327 327 328 331 331 326 325 326 330 332 333 332 331 331 331 331 332 334 334 334 333 332 331 330 330 329 329 328 328 327 327 327 327 327 327 327 326 326 326 325 325 325 324 325 325 325 324 323 322 322 322 323 323 323 323 323 323 322 321 320 320 320 321 321 321 320 321 323
325 325 325 324 323 323 324 322 321 321 321 322 323 323 323 322 323 322 322 323 322 322 322 322 324 325 325 326 326 327 328 328 329 329 327 324 325 328 331 332 332 332 331 330 330 331 332 333 333 333 333 331 331 330 329 329 329 328 328 328 327 327 327 327 327 326 326 326 325 325 325 325 325 325 324 323 322 322 321 321 321 322 322 322 323 323 322 321 320 320 320 321 321 322 321 320 321
326 326 326 325 324 324 324 323 322 321 322 322 323 326 325 323 324 322 322 323 322 322 322 321 322 323 325 327 328 328 327 327 328 328 328 326 324 327 329 330 331 332 331 330 330 330 330 331 331 332 332 332 331 331 330 330 330 329 329 328 328 328 328 328 327 327 326 326 326 325 325 325 325 325 324 323 323 322 321 320 320 322 322 322 322 322 321 320 320 320 320 320 321 321 321 320 320
327 327 326 325 324 325 324 324 324 324 325 323 323 327 326 323 324 324 322 322 322 322 322 321 321 321 324 326 326 327 327 327 327 326 327 326 323 324 326 327 328 330 331 330 329 329 329 329 330 331 331 332 331 331 330 330 330 330 329 329 328 328 328 328 328 327 327 326 326 325 325 326 325 325 324 323 323 322 322 321 321 322 322 322 322 321 321 320 320 320 319 319 320 320 320 321 321
326 325 326 326 326 326 326 326 327 328 328 325 324 328 328 325 324 323 323 323 323 322 322 322 322 321 322 323 323 325 326 325 325 326 325 324 322 322 324 325 326 328 329 329 329 329 329 329 328 329 330 330 330 331 331 330 330 330 330 329 329 329 328 328 328 328 327 326 326 326 326 326 325 325 324 323 323 322 322 321 321 322 322 322 322 321 321 320 320 320 319 319 320 320 320 320 321
324 324 326 327 327 327 328 328 328 327 327 327 325 328 329 327 324 322 323 324 323 323 323 323 323 322 322 322 322 323 325 326 325 326 326 325 322 321 322 323 325 327 328 328 329 329 329 329 328 329 329 329 329 330 331 331 330 330 330 330 329 329 329 328 328 328 328 327 326 326 326 325 325 325 324 324 323 323 322 322 321 322 322 322 322 322 321 321 320 320 320 320 320 320 320 320 320
323 325 329 329 327 328 328 328 328 327 328 329 327 327 330 328 323 322 323 323 323 322 322 322 322 322 322 322 322 324 326 326 325 326 327 326 323 322 322 322 323 324 326 328 329 329 329 329 329 329 329 330 330 330 331 331 330 330 330 330 329 329 329 328 328 328 328 328 327 327 326 326 325 325 324 324 323 323 323 322 322 322 322 322 322 322 322 322 321 321 321 321 321 321 321 321 320
321 325 329 328 327 328 328 329 329 329 330 329 327 326 330 328 323 323 324 323 323 323 322 322 322 322 323 322 324 326 326 326 326 326 327 325 322 323 323 323 323 323 324 325 327 329 329 329 329 329 329 329 329 330 330 331 331 330 330 330 330 329 329 329 329 329 328 328 328 328 327 326 326 325 325 324 324 324 324 323 323 322 323 323 323 323 323 323 322 321 321 322 322 322 321 321 321
320 323 327 327 327 327 328 328 328 329 331 330 326 324 328 328 325 323 324 323 323 323 322 322 323 323 323 323 324 326 325 326 327 326 326 324 322 323 322 322 323 324 324 324 325 327 328 329 329 329 329 329 329 330 330 330 331 330 330 330 330 329 330 329 329 329 329 328 328 328 328 327 326 326 325 325 324 324 324 324 324 323 323 323 324 324 324 323 323 322 322 322 323 323 322 322 321
322 322 323 326 328 328 328 328 327 330 332 329 325 324 327 329 326 322 323 322 322 323 322 322 323 323 325 326 325 325 325 325 326 327 327 326 325 324 322 322 322 324 325 324 325 326 327 329 329 330 330 329 329 330 330 330 330 330 330 329 330 330 330 329 329 329 329 328 328 328 328 327 327 326 326 325 325 324 324 324 324 324 323 323 324 325 324 324 324 323 322 323 323 323 323 322 321
325 323 323 326 327 327 327 327 327 328 328 326 324 326 328 328 325 322 322 322 322 322 321 322 323 323 324 327 327 325 327 328 328 330 330 328 328 325 321 321 323 324 324 324 324 326 326 327 329 330 330 329 329 329 329 330 329 330 330 330 329 329 330 330 329 329 329 328 328 328 328 328 327 327 326 326 325 325 324 324 324 324 323 323 323 324 325 325 324 324 323 323 324 324 323 322 321
325 324 324 325 325 325 325 325 325 324 324 323 323 325 329 328 324 322 322 321 322 321 320 322 323 323 323 324 325 326 328 330 331 331 328 327 326 323 320 320 323 324 324 324 324 325 326 327 328 329 330 329 329 329 329 329 329 330 330 330 330 329 329 329 330 329 329 328 328 328 328 328 328 327 327 326 326 325 325 324 324 324 323 323 323 324 324 325 325 324 324 324 324 324 324 323 322
324 323 324 325 324 323 322 323 323 322 322 323 324 326 328 326 323 322 321 321 321 321 321 321 322 321 322 323 324 324 325 325 326 325 323 323 322 319 319 321 323 325 325 326 325 324 325 326 327 328 329 328 329 329 329 329 329 329 329 329 329 329 329 329 329 329 329 329 328 328 328 328 328 328 327 327 327 326 325 325 324 323 323 323 323 323 324 324 325 325 324 324 324 324 324 324 323
324 323 324 324 323 321 322 323 322 322 324 325 325 327 327 323 322 321 321 321 320 321 323 321 322 321 321 322 321 321 321 321 322 323 322 323 321 319 320 322 323 324 325 325 325 325 325 325 326 326 327 327 327 328 328 329 329 329 329 329 329 329 329 328 328 328 329 329 329 329 328 328 328 328 328 327 327 326 326 325 324 324 323 323 323 322 323 323 324 324 324 324 324 324 324 324 324
323 325 325 323 322 321 323 324 322 322 325 325 323 325 324 322 323 321 321 322 320 321 323 321 322 323 323 323 322 321 322 322 323 323 323 325 324 320 320 321 321 321 322 323 324 324 324 324 324 325 325 325 325 326 326 327 328 328 328 329 329 329 329 328 328 328 328 328 329 329 329 328 328 328 328 328 327 327 326 326 325 324 323 323 323 322 322 322 323 324 324 324 324 324 324 324 324
320 324 324 322 322 322 322 323 324 324 324 323 322 323 323 324 326 323 322 323 321 321 323 321 322 324 324 323 323 324 326 326 325 324 326 329 327 321 320 321 321 321 322 323 323 323 323 323 324 324 324 324 324 324 324 325 326 327 328 328 328 328 328 328 328 328 327 327 328 328 329 329 329 328 328 328 327 327 327 326 325 325 324 323 323 323 322 322 323 323 324 323 324 324 324 324 324
317 320 322 323 324 323 322 322 324 325 324 323 322 322 321 321 322 321 321 322 322 321 321 322 322 322 322 323 324 327 328 328 327 327 329 332 329 321 320 321 321 321 321 321 322 322 322 322 322 322 323 322 323 322 323 323 324 325 326 327 328 328 328 328 327 327 327 327 327 327 328 328 329 329 329 328 328 328 327 327 326 325 324 324 323 323 322 322 323 323 323 323 323 323 323 324 323
316 316 318 321 323 323 323 323 322 323 323 322 322 321 321 320 319 319 319 319 319 321 322 322 322 321 321 322 325 327 327 326 327 327 328 330 327 321 318 319 318 318 318 317 318 318 318 319 319 319 320 320 320 320 321 321 322 323 324 325 327 327 327 327 327 327 327 327 327 327 327 327 328 328 329 329 328 328 327 327 326 325 325 324 324 323 323 323 323 323 323 323 323 323 323 323 323
316 316 316 319 321 322 322 322 322 323 322 321 321 320 319 320 321 320 319 319 320 321 322 322 322 321 322 323 324 325 326 326 326 326 325 326 324 319 317 318 316 316 316 315 316 316 316 317 317 317 318 318 318 318 318 319 320 321 322 323 325 326 327 327 327 327 327 327 327 326 326 327 327 327 328 328 328 328 328 327 327 326 325 324 324 324 323 323 323 323 323 323 323 323 323 323 323
317 316 316 316 317 319 320 319 319 322 322 322 322 321 321 322 323 319 318 319 320 321 322 322 322 321 321 322 323 325 325 324 324 323 323 326 324 319 317 317 316 315 315 314 315 315 315 316 316 316 316 317 317 317 317 318 318 319 320 321 322 324 326 327 327 327 327 327 327 326 326 326 327 327 327 327 327 327 327 327 327 326 326 325 325 324 324 323 323 323 323 323 323 323 323 322 322
Wind_Speed
23 24 27 24 23 21 10 4 2 2 2 2 4 4 3 2 1 2 6 4 3 5 4 4 5 5 2 4 5 9 9 6 4 2 1 6 13 13 10 17 20 17 18 16 17 18 17 16 13 13 10 9 8 5 8 11 10 9 9 11 11 11 9 10 10 10 10 11 12 14 15 16 15 15 15 15 15 15 14 15 15 15 16 16 16 16 17 17 17 16 16 16 17 17 18 18 17
22 25 26 23 22 14 3 1 2 3 1 4 4 3 2 2 2 6 9 6 5 4 4 4 5 4 2 4 2 5 8 8 7 5 4 12 13 9 12 19 19 18 18 16 16 16 16 15 13 13 10 8 7 7 11 11 9 9 8 10 12 11 9 9 9 10 10 10 12 14 15 15 15 14 14 14 14 14 14 14 15 15 15 15 16 16 16 16 16 16 15 16 16 17 17 17 17
22 25 24 21 16 8 2 2 2 3 2 3 3 2 1 3 6 8 8 7 6 4 3 2 2 2 3 3 2 3 5 6 9 7 6 13 11 10 16 19 19 18 16 15 15 14 13 13 13 12 9 7 8 10 14 11 9 9 8 10 12 12 10 9 10 11 10 10 11 14 15 15 14 13 13 14 14 14 13 14 14 14 14 14 15 16 15 15 15 15 15 15 16 16 16 17 16
22 22 20 15 8 5 3 2 2 3 3 2 3 3 5 6 6 8 7 6 5 3 1 0 1 0 3 4 4 4 5 5 8 9 7 11 14 14 17 20 19 17 16 15 15 14 12 13 14 12 9 8 11 14 14 11 8 7 8 11 11 11 11 10 11 11 11 9 11 14 15 14 14 13 13 13 13 13 13 13 13 14 13 14 14 15 15 14 15 14 15 15 16 16 17 17 16
20 20 19 12 3 3 2 2 4 2 3 3 3 4 6 6 6 7 6 5 3 2 1 2 1 1 1 2 4 2 3 3 9 11 9 11 19 17 17 22 19 16 16 15 16 15 11 12 14 13 11 9 12 16 13 10 8 7 9 11 11 11 10 11 11 11 10 9 11 13 14 14 13 12 12 12 13 13 13 13 13 13 13 13 13 14 14 14 14 14 14 14 15 16 16 16 16
18 20 18 8 2 1 1 3 3 3 3 4 3 4 7 6 5 6 6 5 3 3 2 2 2 1 1 3 4 4 2 3 8 9 11 15 22 19 18 21 17 15 14 15 17 14 12 11 12 13 13 10 12 16 13 10 8 7 9 10 11 11 11 12 12 11 9 8 9 12 13 13 12 12 12 12 12 12 13 13 12 12 12 12 13 13 13 13 13 14 14 14 15 15 15 15 16
17 14 9 4 1 0 2 4 3 3 2 4 4 4 6 5 3 4 6 4 3 3 1 3 2 3 1 3 4 6 7 6 8 8 14 19 22 18 18 19 17 16 13 13 14 13 12 10 12 13 13 11 13 16 13 10 9 9 10 10 10 11 11 11 11 10 9 8 8 9 12 12 12 12 12 11 12 12 12 12 12 12 11 11 12 12 12 12 12 13 13 13 14 14 15 14 15
16 6 1 3 2 2 3 4 3 2 1 2 4 4 5 5 2 2 5 3 2 3 2 0 1 2 1 1 2 5 9 11 12 13 18 21 20 19 18 17 17 16 13 12 11 11 10 11 12 12 12 12 15 17 12 11 11 10 10 10 10 10 10 10 10 10 9 7 7 7 10 12 12 12 11 11 11 11 11 11 11 11 11 10 11 11 11 12 12 12 12 13 13 13 14 13 14
13 5 1 2 3 3 4 4 1 2 4 4 3 5 4 4 1 1 4 4 3 4 4 2 1 1 1 1 4 5 8 12 15 16 19 20 21 19 17 16 16 16 13 11 11 11 9 11 12 11 12 12 15 15 12 12 12 11 10 10 10 9 9 9 9 9 8 7 6 7 8 10 11 11 11 10 10 11 10 10 10 10 10 9 10 10 11 11 11 11 12 12 12 12 13 12 13
7 3 0 1 3 3 4 4 1 1 4 4 3 6 4 2 2 1 2 5 4 3 5 4 1 0 2 3 5 4 8 12 15 16 17 19 20 18 16 15 16 17 14 10 10 10 8 11 13 11 12 14 13 13 13 13 12 11 11 10 10 9 9 9 8 8 8 7 6 6 6 8 10 11 10 10 10 10 10 9 9 9 9 9 9 10 10 10 11 11 11 12 12 12 12 11 12
3 2 1 0 4 3 4 3 2 1 3 4 5 7 3 1 1 2 2 4 6 3 5 2 1 1 2 4 3 3 11 12 15 17 17 18 18 17 15 14 15 16 14 11 10 10 9 11 12 11 13 15 13 12 13 13 12 12 11 10 10 10 9 9 8 8 9 8 6 5 6 7 8 10 10 10 11 10 9 9 8 8 9 9 9 9 9 9 10 10 10 11 11 11 11 11 11
3 3 1 1 3 3 4 4 3 2 2 3 6 5 1 2 1 2 2 2 5 5 5 3 1 1 2 2 2 6 11 11 16 17 17 18 17 16 15 13 14 16 13 11 11 10 9 11 12 12 13 16 15 13 13 12 12 12 11 10 9 10 9 9 9 9 9 8 7 6 5 5 7 9 10 11 12 10 9 9 8 8 8 8 8 8 8 8 8 9 9 9 9 10 10 10 10
3 3 3 3 3 4 4 4 5 4 3 3 5 2 2 4 1 1 1 2 4 4 5 4 2 0 1 4 4 6 8 11 16 17 17 17 15 16 14 13 13 15 15 12 12 11 9 10 11 12 14 16 16 14 14 13 12 12 12 11 10 10 10 10 9 9 10 9 8 6 5 5 5 6 8 11 12 11 10 9 8 8 7 7 8 8 8 7 7 7 8 8 8 8 8 8 8
2 4 3 3 3 4 5 3 3 4 1 4 4 3 2 3 3 4 3 1 3 1 4 3 2 1 1 4 4 3 7 13 17 17 17 15 15 15 13 14 14 14 16 15 12 12 10 10 11 12 14 17 17 16 14 13 13 13 13 12 11 11 11 11 10 9 10 10 9 6 5 5 3 4 6 8 10 10 11 11 9 8 7 7 7 7 7 7 7 7 6 7 7 6 6 7 7
2 3 2 2 4 4 4 3 1 4 1 5 2 3 3 3 3 2 3 3 4 2 3 3 3 1 2 2 3 5 11 17 17 17 16 15 15 14 13 14 15 13 14 16 13 13 12 10 11 12 13 16 17 16 15 13 13 13 13 13 12 11 11 11 10 10 10 11 10 7 6 5 3 3 5 6 6 7 10 12 10 9 7 7 7 7 7 7 7 6 6 5 5 5 5 5 5
1 2 2 2 4 4 4 3 2 3 1 5 2 2 4 4 3 0 2 3 1 2 0 1 2 1 3 4 6 12 17 19 18 17 16 16 15 14 12 12 15 13 13 15 14 14 13 11 13 13 12 15 16 14 13 13 14 14 13 14 13 12 11 10 10 10 10 11 11 9 7 5 3 3 3 4 5 5 8 10 10 10 8 7 7 7 6 7 7 6 6 5 4 4 4 3 3
0 1 2 3 4 4 3 3 2 2 2 5 4 2 2 5 3 0 1 2 1 2 1 2 3 2 4 7 13 18 20 19 19 19 17 16 15 14 13 12 15 14 14 16 16 15 14 14 14 14 13 13 14 13 12 12 13 14 14 14 14 13 12 11 10 10 11 11 11 9 7 5 4 4 4 4 4 5 7 8 9 10 9 9 8 7 7 6 6 6 6 5 4 3 3 2 2
1 2 3 4 4 4 4 5 3 1 1 5 5 2 2 2 4 2 1 3 3 3 3 3 4 6 9 13 18 20 20 19 20 19 17 17 15 15 14 14 15 15 16 16 16 16 16 16 15 15 14 14 15 14 14 14 13 14 16 15 14 14 13 12 11 11 11 11 11 10 8 5 4 4 5 5 5 6 7 7 8 10 10 10 9 8 7 6 6 6 6 5 5 4 3 2 2
3 2 3 5 4 5 6 7 4 3 4 3 4 3 1 2 2 2 1 3 3 4 5 6 6 7 10 13 18 19 19 19 19 18 17 17 16 16 16 16 16 17 18 18 18 17 17 17 17 17 16 15 16 15 16 16 13 13 16 16 16 15 14 13 12 12 12 12 12 11 9 5 5 6 6 6 7 7 7 7 7 9 9 10 10 8 7 7 6 5 5 6 5 5 4 2 2
4 3 4 5 5 7 8 9 7 3 5 6 3 0 2 1 2 1 2 4 4 5 3 5 7 8 9 10 16 18 17 18 18 17 17 17 17 17 17 18 19 19 20 20 19 19 19 19 18 18 17 17 18 18 17 16 15 14 15 17 16 16 16 15 15 13 12 13 13 13 10 8 9 10 9 9 9 9 8 8 8 8 9 9 10 9 8 8 7 6 6 7 7 6 5 3 3
4 5 5 6 6 8 8 10 9 4 4 5 5 5 3 2 2 1 2 4 4 4 2 3 1 6 11 8 12 16 15 16 17 17 16 17 17 17 17 18 20 20 19 20 20 21 21 20 20 19 19 18 18 20 18 16 16 14 15 17 16 15 16 16 17 15 14 14 14 14 12 10 12 13 11 11 11 10 10 9 10 10 10 10 10 10 10 9 9 9 9 9 9 8 7 6 6
4 5 7 8 7 8 8 10 7 5 5 5 4 6 6 4 1 2 3 4 4 3 4 6 5 6 12 10 11 13 12 13 15 16 16 17 18 17 17 17 19 19 19 21 22 22 22 21 20 20 20 19 19 20 20 18 17 15 15 17 18 17 16 16 17 18 17 17 17 14 13 14 15 15 13 13 13 12 12 10 10 11 11 10 9 10 10 9 9 10 10 10 10 9 8 8 9
6 6 7 9 10 10 8 9 6 5 4 3 3 5 6 7 5 3 5 5 6 6 4 3 3 6 11 13 12 10 10 11 14 17 18 18 19 18 18 18 19 21 22 22 22 22 23 23 22 21 22 22 22 21 20 20 19 18 17 18 20 20 18 16 17 18 18 19 19 17 15 17 17 17 15 15 16 14 14 13 10 9 10 10 9 9 9 10 10 9 10 10 10 9 9 10 12
8 7 8 10 11 12 9 7 8 4 2 2 3 5 7 7 6 4 6 7 6 6 5 4 1 5 8 9 11 10 10 12 15 19 21 20 21 20 19 19 19 21 23 22 22 22 24 25 24 23 23 24 24 23 22 21 21 21 20 19 21 21 20 19 18 18 19 20 21 20 18 19 19 18 17 16 15 14 15 15 13 10 10 12 11 10 10 12 12 10 10 11 11 11 13 15 16
10 9 8 9 9 11 9 7 10 9 5 5 4 5 9 9 6 7 8 8 7 6 4 6 7 3 6 6 9 10 10 13 16 18 20 21 20 20 20 19 19 20 23 23 23 23 24 26 26 25 25 25 26 25 24 22 22 22 22 21 22 22 21 21 20 19 20 21 21 21 20 21 20 19 18 17 15 13 15 17 16 15 13 16 16 14 14 14 13 12 12 14 14 14 16 17 17
8 10 9 10 9 9 10 9 10 9 5 5 7 8 10 9 6 9 10 9 9 8 6 7 9 8 7 7 8 9 9 11 15 17 20 21 20 20 21 21 21 21 23 24 24 25 25 26 28 28 27 26 26 26 26 24 22 23 24 23 23 24 22 22 22 20 21 22 22 22 22 23 22 20 18 18 17 16 17 18 19 18 17 19 20 18 17 16 15 14 13 14 16 16 17 16 15
6 10 10 11 11 9 10 11 11 10 7 7 10 11 10 8 6 7 7 7 8 8 8 8 8 10 9 7 7 8 9 11 16 17 17 18 19 21 22 24 23 23 23 24 26 26 25 27 29 30 29 27 27 27 28 27 24 23 25 25 25 25 24 24 24 23 23 23 23 23 24 25 24 22 19 18 19 18 19 20 20 20 19 20 20 20 19 18 17 16 14 15 16 18 17 15 15
9 9 10 11 11 9 10 11 10 8 7 8 10 11 10 8 8 9 7 6 6 7 8 8 7 7 7 7 7 7 8 12 17 18 15 17 19 21 23 26 26 24 23 25 26 27 26 28 29 31 31 29 28 28 28 27 26 24 25 26 27 26 26 26 25 25 25 25 25 24 25 26 27 27 23 20 20 20 20 21 21 21 21 20 20 20 20 19 18 18 18 16 17 18 17 17 17
10 9 9 11 11 12 11 10 9 8 6 5 5 9 9 10 11 11 10 9 9 11 11 11 10 8 7 6 6 7 8 12 15 16 18 20 21 22 24 26 27 26 25 25 25 26 27 27 28 30 31 30 30 29 29 28 27 25 25 25 27 26 26 27 27 27 26 27 26 26 26 26 27 29 27 23 21 22 21 21 22 22 23 22 21 21 21 20 19 21 22 20 19 20 21 21 20
9 9 7 8 9 10 10 10 11 10 8 5 3 5 7 9 12 13 13 13 12 13 13 11 11 9 8 7 7 7 8 11 13 16 20 22 22 24 25 25 27 28 27 25 25 26 27 27 28 29 30 31 32 31 29 29 28 27 26 25 26 27 26 27 28 27 27 27 28 27 27 27 27 29 30 27 23 23 23 23 22 22 23 24 23 22 21 22 21 22 23 22 22 23 24 23 22
6 7 6 6 7 7 7 10 12 11 9 8 8 7 7 7 9 11 12 13 14 13 12 11 10 9 8 7 7 7 7 10 15 18 20 23 24 25 25 24 25 28 27 27 28 28 27 28 28 29 30 32 32 33 31 30 30 29 28 27 27 27 28 28 28 27 27 27 28 28 28 29 29 29 30 30 27 25 26 25 24 23 23 24 24 23 22 23 22 22 22 21 22 23 24 23 22
5 6 5 5 7 6 7 9 11 11 9 11 11 7 6 9 11 11 11 10 11 11 10 10 10 9 9 7 7 7 7 11 17 20 21 23 24 25 26 25 25 27 28 29 30 30 29 29 29 29 30 32 33 34 33 31 31 30 29 28 28 28 29 30 30 29 28 28 28 29 29 29 30 29 30 31 31 29 28 28 26 24 23 23 24 24 24 24 23 22 21 20 21 22 22 21 20
5 6 6 5 6 6 6 8 11 12 8 11 15 8 3 6 9 10 10 10 10 10 10 9 8 8 8 6 6 7 7 9 12 17 21 23 24 26 26 25 26 28 29 29 29 31 32 31 31 31 31 33 33 34 34 32 31 31 30 29 29 29 29 31 31 30 29 29 29 30 30 30 31 31 31 32 33 32 30 29 28 26 25 23 24 24 26 26 25 23 22 22 22 21 21 20 19
4 6 6 7 7 7 5 4 8 12 11 11 14 12 8 6 7 8 8 9 9 9 10 10 8 8 7 6 7 7 6 7 7 13 20 22 23 25 25 25 26 28 29 29 29 31 32 32 33 33 32 33 33 34 34 34 32 31 31 31 31 30 30 31 31 30 30 30 31 31 31 31 31 31 31 32 33 34 32 30 29 27 26 25 26 26 26 26 26 25 24 24 24 24 23 22 20
7 7 6 6 8 9 8 6 4 8 11 10 10 11 11 10 9 10 10 11 11 9 8 8 8 8 7 7 7 6 6 6 7 13 19 22 24 24 24 24 24 27 28 28 29 29 31 32 33 34 34 33 33 33 33 34 33 31 30 30 30 31 31 32 32 32 32 32 32 33 32 32 32 32 32 32 33 34 34 32 29 28 27 27 28 28 27 26 26 27 26 26 25 26 27 25 23
8 8 7 7 8 8 9 9 7 5 6 9 10 11 10 10 10 11 10 11 13 12 9 7 8 8 7 7 7 7 7 7 9 14 16 19 24 24 23 23 23 25 27 27 28 28 29 30 31 33 34 33 33 33 32 33 32 31 30 29 31 33 33 33 33 34 34 35 35 34 34 34 34 33 33 33 34 34 35 34 31 29 29 30 30 31 31 29 27 27 28 27 26 25 26 26 23
9 7 8 9 7 7 7 8 9 8 6 8 9 10 11 11 11 10 9 10 12 13 12 11 10 9 8 9 9 9 8 8 10 14 13 14 20 24 24 23 23 24 25 26 27 28 29 30 31 33 34 33 33 34 34 35 34 33 32 33 34 34 34 34 35 36 36 38 38 36 36 36 35 35 35 35 35 34 35 35 34 32 32 32 33 33 33 31 29 28 27 27 27 26 26 25 23
12 8 8 8 6 6 6 6 5 5 6 6 8 11 13 12 11 10 10 11 11 11 12 13 12 12 10 10 10 9 8 7 8 10 12 13 16 21 24 24 24 25 26 27 28 30 30 30 31 32 32 33 34 36 36 37 38 37 36 37 37 34 34 36 37 39 39 38 38 38 39 38 37 37 38 38 37 36 36 36 36 35 35 34 34 34 32 31 30 29 28 27 28 28 28 25 24
10 8 8 8 7 5 6 8 6 4 3 4 6 10 11 11 11 11 11 12 11 11 13 13 12 12 11 10 9 9 8 8 8 8 10 15 18 21 24 25 27 28 29 29 30 30 31 31 32 31 32 34 36 37 37 38 39 39 39 38 37 35 35 37 38 37 37 37 37 38 39 39 39 39 40 39 39 39 38 38 38 37 36 36 35 34 33 33 32 31 30 29 27 27 28 27 25
9 8 8 8 7 5 5 6 6 6 5 5 6 8 9 9 10 11 11 12 12 13 15 14 13 13 12 11 9 9 9 9 9 9 9 13 18 22 24 26 29 30 29 30 31 31 31 32 33 33 33 35 37 38 39 39 38 38 37 35 33 32 32 33 34 34 34 35 36 37 38 38 39 40 40 40 40 40 40 41 40 38 37 37 37 36 36 35 35 34 33 31 28 26 27 28 28
10 10 10 9 7 7 7 5 6 7 6 7 6 7 9 9 10 12 10 11 14 14 14 15 14 13 12 10 10 9 9 9 9 10 10 10 15 21 26 29 30 30 30 31 33 34 34 35 36 36 36 37 38 40 40 38 35 34 33 30 27 27 28 28 31 34 35 35 37 39 39 39 39 40 40 40 40 41 41 41 41 40 39 39 39 38 38 37 36 35 35 34 33 30 26 26 27
8 11 12 11 8 9 10 7 6 5 6 5 2 6 9 6 9 13 10 11 15 13 14 17 15 14 12 10 10 10 10 10 9 10 10 9 13 19 25 29 30 30 31 34 36 36 37 37 38 38 38 39 39 40 40 38 36 34 33 31 29 28 28 31 35 38 38 40 41 41 40 40 41 41 41 41 41 41 41 41 41 41 40 40 40 40 39 38 37 37 37 36 36 35 29 24 26
8 9 10 11 10 11 11 9 6 4 5 2 1 5 8 4 8 11 9 11 13 12 13 15 13 12 12 10 11 11 10 10 10 11 12 11 13 15 18 24 28 30 33 36 36 36 37 37 39 40 41 42 42 42 41 39 38 37 36 37 36 34 33 36 40 38 38 40 40 39 40 41 42 42 42 43 43 43 42 42 41 41 41 41 40 40 40 40 39 38 37 37 37 36 33 28 26
8 5 3 8 11 12 11 9 8 6 4 3 2 4 7 10 10 8 8 10 11 10 11 11 10 10 11 12 13 12 10 9 9 11 12 13 15 17 19 22 26 30 33 35 35 34 36 38 39 41 42 42 43 42 41 41 42 40 39 39 38 38 39 40 38 35 35 36 36 38 39 40 42 43 44 44 44 44 43 43 41 41 41 41 40 41 42 41 39 37 36 36 36 35 36 35 30
8 2 3 2 3 4 5 5 7 5 4 6 7 5 5 13 11 5 7 11 11 12 11 11 10 9 10 12 13 12 10 10 10 11 12 12 16 22 26 27 29 30 31 33 35 35 36 39 40 39 39 40 41 40 40 41 43 43 41 39 37 39 42 40 34 32 33 33 35 37 38 40 42 43 44 45 44 44 44 44 43 42 42 42 41 41 41 40 39 38 37 37 37 37 38 38 34
7 2 2 1 3 4 4 2 2 2 4 9 10 8 6 13 11 4 5 8 8 9 9 10 11 11 12 12 11 11 10 9 10 11 12 13 18 25 27 28 29 31 31 32 33 34 35 36 37 37 38 39 40 39 39 40 43 43 41 39 39 40 40 37 32 30 32 34 35 37 38 39 40 42 45 45 45 45 45 45 44 43 43 42 41 41 41 41 41 39 38 37 38 39 38 38 37
6 4 4 2 0 2 3 2 2 2 6 12 15 13 10 11 10 3 5 7 6 6 7 7 9 10 12 11 9 9 9 9 9 10 11 13 19 25 26 25 25 28 30 30 29 30 31 33 34 35 37 38 38 37 38 40 41 42 41 41 41 41 40 36 32 32 34 34 35 37 37 38 38 40 42 44 45 46 45 45 44 44 43 41 41 41 41 41 41 40 38 37 38 40 39 38 38
5 5 5 3 1 1 2 0 1 3 8 12 14 14 12 11 10 2 3 7 7 7 7 8 9 9 9 9 8 8 8 8 9 9 8 9 13 17 20 22 22 22 24 25 26 27 28 30 31 32 34 35 35 35 37 39 40 41 41 42 42 43 41 37 34 36 37 36 37 37 35 36 37 38 38 41 44 46 45 44 44 44 44 43 43 43 42 40 40 39 38 38 38 40 41 39 38
5 6 6 5 3 3 4 3 4 7 9 8 8 10 10 10 12 11 11 12 10 10 11 7 7 8 7 6 6 6 7 7 8 8 7 7 8 9 12 16 17 17 19 21 24 26 27 29 30 30 32 34 35 36 37 39 41 41 42 42 43 44 42 40 38 39 39 38 38 37 36 36 37 36 38 41 44 45 45 45 46 47 47 47 46 45 43 41 39 38 39 39 39 39 41 40 40
7 6 7 8 5 5 7 6 6 8 8 7 8 8 7 4 9 17 18 17 15 16 17 12 10 10 6 5 5 5 6 6 6 6 6 7 8 8 11 13 14 15 18 22 25 26 26 27 28 30 32 33 35 37 37 38 40 41 42 43 43 43 42 41 40 40 40 39 39 39 39 39 38 38 40 43 43 43 45 47 47 47 47 47 46 45 44 42 40 39 39 40 40 39 39 40 41
7 6 5 7 6 6 8 6 7 7 6 5 7 7 6 5 7 13 13 14 15 14 15 15 15 15 10 8 8 8 8 7 7 8 9 10 10 11 13 13 12 13 16 20 23 25 24 25 27 29 31 32 34 35 36 36 38 39 41 42 43 43 42 42 41 41 41 40 40 40 40 39 39 41 42 43 42 42 44 46 46 46 46 45 44 44 43 41 41 40 39 38 39 39 37 39 40
6 6 5 8 9 8 5 3 5 4 4 3 5 4 4 3 6 8 6 10 10 9 11 14 14 14 13 11 11 11 10 9 9 10 12 11 10 11 12 12 12 14 16 17 20 21 22 23 25 28 30 31 33 34 35 36 38 39 40 41 42 43 42 42 41 41 41 41 40 40 39 39 39 40 41 41 41 41 43 45 45 46 45 44 44 44 43 42 41 40 40 38 38 38 38 38 39
4 7 9 8 6 6 4 6 5 4 6 5 4 6 5 2 7 8 8 11 9 6 8 9 9 11 11 11 12 12 10 9 10 10 10 8 7 10 14 15 15 15 16 17 18 20 21 23 24 26 28 30 31 33 33 35 36 37 38 40 41 41 42 43 42 41 41 40 39 39 38 37 38 39 39 40 40 41 42 44 45 46 45 44 44 44 44 43 41 41 41 40 39 38 37 38 38
3 5 9 5 2 1 1 4 5 7 9 6 6 10 7 3 4 5 9 13 11 9 9 9 10 11 10 10 10 9 8 9 10 9 7 7 6 7 10 11 9 10 12 15 17 18 20 22 23 25 27 28 30 31 32 33 34 35 37 38 39 40 41 42 42 42 40 39 38 38 37 37 38 38 39 39 39 40 41 43 44 45 45 45 44 43 43 43 41 41 41 41 40 38 36 37 38
10 5 6 5 1 3 4 3 4 7 8 6 8 10 7 6 5 4 7 10 9 9 9 7 7 8 10 11 8 7 7 7 5 4 5 4 4 5 6 7 6 7 9 11 14 15 17 18 20 23 25 27 28 30 31 32 33 34 36 37 38 39 40 41 41 41 40 39 39 39 38 38 38 38 39 39 39 39 40 42 43 44 44 44 44 43 42 42 42 41 41 41 40 39 37 37 38
12 7 3 2 1 4 5 2 3 5 7 6 7 8 5 5 5 6 9 10 8 6 4 5 6 7 7 4 1 2 3 3 5 5 6 5 5 6 8 9 11 11 12 13 15 16 17 18 19 21 24 26 27 28 30 30 31 33 35 36 36 37 38 39 40 39 38 39 40 39 39 39 39 39 40 39 39 40 40 42 43 43 43 43 43 43 42 42 42 41 41 41 40 40 38 38 38
8 8 7 5 3 2 1 2 2 3 4 5 7 8 5 3 2 1 3 5 5 5 6 6 7 8 8 7 6 5 5 5 5 5 5 5 5 7 9 11 12 13 14 16 17 17 17 18 19 21 23 25 27 28 29 30 31 31 33 34 35 36 36 37 38 38 38 39 39 39 39 39 39 40 40 39 39 40 40 41 42 43 43 43 43 43 43 42 42 41 41 41 40 40 40 39 38
7 9 10 9 8 5 3 6 5 3 4 4 6 7 4 3 2 3 4 5 4 5 6 5 7 8 8 8 7 5 5 4 3 3 5 5 6 8 10 12 14 15 17 19 20 20 19 19 20 21 22 24 26 28 28 29 29 30 32 33 34 35 35 35 36 36 37 38 38 39 39 39 39 40 40 40 39 39 39 40 41 42 42 43 43 44 44 43 42 42 41 41 40 39 40 39 38
Wind_Direction
335 335 333 329 318 308 295 270 263 256 207 54 63 93 76 72 141 78 82 101 79 59 17 25 38 24 19 340 24 67 43 28 41 15 78 144 145 163 166 135 136 140 142 149 158 150 145 152 149 144 151 160 147 124 128 124 116 116 125 128 126 122 115 110 108 104 99 93 96 101 102 99 94 91 89 90 91 91 88 83 82 83 83 85 86 86 85 85 84 82 81 82 83 84 83 83 84
336 333 330 327 314 303 283 263 272 265 130 83 60 77 147 148 80 52 58 65 64 61 18 24 42 27 353 318 320 81 60 49 69 74 109 133 139 168 147 134 141 141 144 149 154 149 151 154 147 148 150 156 143 127 139 131 125 127 123 130 131 125 120 118 117 113 107 98 98 105 106 103 99 96 93 93 94 93 91 88 86 84 84 86 86 87 87 86 86 84 83 84 84 86 86 85 85
335 331 323 322 316 299 253 268 268 316 16 94 76 61 101 63 62 63 63 67 70 68 39 24 47 18 285 284 325 69 82 75 88 91 116 136 144 174 152 138 143 143 146 147 149 154 160 155 146 151 153 146 133 136 140 130 129 131 130 139 137 131 132 131 126 119 111 102 101 108 109 107 103 99 98 97 96 95 94 92 89 87 88 88 89 89 89 89 88 86 85 86 86 86 86 86 86
334 327 315 314 321 308 302 278 279 342 9 75 80 65 58 58 71 77 76 77 78 91 114 281 114 58 310 328 350 61 86 76 97 112 139 162 163 166 152 142 145 144 145 150 155 162 169 159 149 149 151 138 136 141 133 131 139 136 141 147 143 139 140 135 129 123 116 107 103 110 112 110 108 105 103 101 100 98 96 95 92 91 90 90 91 92 92 93 92 90 89 89 90 88 87 86 88
327 320 312 304 311 315 337 319 297 11 18 15 72 73 60 57 77 92 94 92 82 68 4 323 34 115 113 355 338 62 90 83 93 110 130 158 159 154 144 141 144 144 148 156 159 165 172 163 156 152 152 143 145 144 131 140 154 146 147 149 148 143 139 134 130 127 120 110 106 113 116 115 114 111 108 105 104 102 100 98 96 94 93 92 92 93 93 94 94 93 91 91 92 91 90 87 95
319 321 314 280 231 355 282 277 299 72 19 3 64 69 69 61 63 100 109 105 93 70 13 331 17 317 120 79 48 53 10 115 102 106 120 137 152 148 140 142 145 148 151 156 160 170 176 169 161 156 157 154 152 146 135 146 157 150 144 145 148 141 136 133 130 127 123 112 107 116 121 123 121 118 113 109 108 105 103 101 100 98 96 95 95 96 96 97 97 96 94 94 95 94 94 92 101
313 318 322 269 227 317 257 284 328 66 357 358 52 57 70 76 70 123 129 126 134 121 45 357 356 317 105 109 80 60 32 87 110 115 132 139 149 146 142 146 147 152 151 153 164 176 175 174 166 160 163 159 156 147 139 152 157 148 141 141 142 136 135 133 130 131 129 118 108 118 127 130 127 124 118 114 112 108 106 103 103 100 98 98 100 101 101 102 101 100 99 98 98 98 98 95 103
308 294 326 321 307 253 272 289 320 69 70 34 67 61 62 77 68 152 140 148 163 143 161 105 324 326 149 167 106 84 59 85 107 119 135 141 147 146 146 149 147 150 148 149 164 171 168 172 170 168 168 160 158 149 144 161 161 152 143 137 137 134 134 135 138 138 138 130 114 117 130 135 133 129 123 119 115 112 109 107 106 104 104 103 104 105 103 103 102 103 101 102 101 99 101 98 103
308 276 238 323 306 298 287 268 268 78 86 85 98 99 90 90 68 210 139 133 139 134 138 134 42 13 303 47 95 106 86 100 113 121 133 141 150 149 149 153 150 149 149 152 159 161 161 169 173 172 169 160 160 155 153 164 164 162 151 143 144 142 142 146 150 146 146 143 123 118 128 137 137 134 128 124 119 116 114 112 112 110 110 106 107 108 105 104 104 104 102 102 103 103 104 101 107
308 253 27 356 293 303 278 268 161 134 92 96 91 89 83 77 114 239 174 131 129 129 104 84 68 280 304 90 107 112 113 121 121 126 136 144 150 151 152 155 155 151 152 159 165 168 167 175 175 172 170 158 159 165 164 167 166 166 162 157 156 152 155 161 161 155 157 154 134 125 127 135 141 138 133 131 126 122 120 118 117 116 114 111 111 110 107 107 106 106 103 103 105 108 109 108 115
311 270 69 112 275 276 271 305 56 160 112 116 95 82 68 22 141 222 235 122 114 119 107 120 180 261 296 104 99 112 126 134 131 133 141 147 150 153 154 155 161 158 156 163 168 175 177 181 177 173 174 162 162 176 175 172 169 168 169 169 165 162 165 171 169 166 168 165 151 139 133 136 144 144 141 142 137 129 128 128 124 120 119 118 118 117 113 110 110 109 105 104 104 108 111 115 119
290 314 334 270 277 281 293 330 359 341 26 96 94 87 126 114 180 195 196 125 118 139 137 168 151 17 274 97 99 134 134 136 135 139 144 147 150 153 155 157 164 163 164 163 162 174 178 182 182 178 177 170 169 180 184 178 174 174 173 175 175 174 176 179 174 172 174 171 162 149 139 137 146 153 152 151 145 140 139 136 132 131 130 129 128 127 120 115 116 113 108 106 106 108 110 114 117
291 322 314 290 282 288 306 326 340 337 347 57 98 118 174 137 148 21 144 131 128 162 133 134 128 177 290 84 107 141 136 134 137 143 145 148 151 154 157 159 161 165 171 165 167 177 178 183 185 185 182 178 177 182 186 181 181 181 180 182 183 183 182 184 180 176 177 174 170 161 147 134 142 158 162 161 155 151 149 145 146 145 143 138 135 135 130 126 125 119 113 111 111 111 110 113 114
314 319 315 307 305 300 297 294 333 326 3 86 103 132 117 95 58 12 325 109 97 95 97 100 86 30 27 107 137 150 136 136 141 145 145 148 151 154 157 161 162 166 172 169 174 173 171 183 184 189 188 184 184 185 186 187 189 189 189 187 188 191 186 188 186 180 181 180 179 177 160 138 134 148 161 169 166 162 157 157 159 156 152 146 142 143 142 138 135 129 123 118 116 115 113 115 113
301 317 313 292 297 290 283 276 328 310 37 103 99 130 109 70 72 4 325 23 70 82 92 84 52 18 358 87 143 147 143 143 144 146 145 148 149 153 156 164 167 167 172 173 179 176 174 183 182 190 192 187 188 189 190 194 196 194 195 190 190 196 191 191 189 184 185 185 187 192 179 161 156 145 152 168 175 172 166 167 166 162 159 159 156 153 155 151 146 142 137 129 123 121 117 116 116
267 324 309 257 269 265 272 268 185 251 106 106 122 160 136 98 87 295 16 18 84 132 134 85 62 329 21 51 114 131 143 146 145 145 144 146 148 154 155 162 171 175 180 180 186 188 187 186 186 193 194 189 190 193 197 202 202 200 200 193 191 195 197 196 191 191 191 192 194 196 190 184 199 185 166 169 179 181 177 178 173 169 168 169 167 164 172 165 157 154 150 147 137 133 128 125 123
253 255 261 250 247 247 257 266 231 209 133 130 162 182 139 122 127 99 61 294 252 132 180 141 113 85 75 99 122 130 141 146 146 146 146 149 151 156 161 165 174 183 188 189 193 194 195 193 191 195 195 192 192 196 201 206 205 204 204 198 193 195 201 202 198 197 195 198 200 200 198 204 220 208 204 194 191 191 188 188 182 181 178 178 177 177 186 179 171 170 166 164 161 160 154 155 151
245 221 229 245 239 241 247 250 270 280 201 143 135 67 21 117 133 117 124 233 217 165 178 159 117 95 106 123 129 135 144 147 150 152 152 157 160 161 169 176 180 187 189 194 199 197 197 197 196 196 198 197 195 197 201 208 209 207 209 204 201 199 203 208 208 204 200 203 204 204 200 211 226 200 209 211 211 209 198 196 193 194 191 189 193 192 195 196 194 185 180 182 184 190 190 193 184
212 240 236 239 241 259 272 279 322 359 328 22 84 83 47 17 64 118 259 256 223 203 193 175 159 123 119 130 134 140 148 153 159 162 162 167 171 169 173 180 185 190 192 195 199 201 200 199 200 199 201 200 197 197 198 206 213 211 211 210 210 207 207 211 214 212 207 208 210 208 199 210 231 215 215 213 217 220 211 211 208 207 204 203 208 211 213 216 220 207 197 201 204 211 212 197 225
205 224 243 243 248 266 274 286 305 335 323 330 332 298 133 21 2 158 275 300 279 260 233 182 188 165 146 142 141 147 155 162 170 173 174 177 180 178 177 181 187 191 193 195 196 200 201 200 201 200 202 201 197 198 197 203 213 213 209 210 212 212 212 211 215 216 213 215 216 215 207 202 217 222 216 208 216 224 226 229 224 219 214 214 217 222 228 233 239 233 225 223 221 223 219 186 223
205 206 235 249 255 268 274 279 286 304 310 310 322 330 335 330 343 327 306 299 277 274 10 48 0 146 147 150 151 157 162 168 179 184 185 185 188 187 185 186 190 192 192 193 195 198 200 200 201 201 202 203 201 199 199 201 209 212 205 205 209 213 215 211 212 213 213 218 219 220 214 205 212 221 217 209 213 222 229 237 237 231 222 220 222 228 234 239 244 241 240 240 238 239 230 201 209
251 241 244 256 261 267 274 284 306 16 356 346 358 329 312 309 301 256 261 265 269 283 47 55 34 98 145 159 159 166 170 174 184 192 194 192 193 193 191 190 189 191 191 193 195 196 198 199 200 201 201 204 204 202 201 201 203 207 203 201 205 209 214 213 211 210 211 213 218 220 209 206 214 218 222 220 219 222 230 238 241 236 228 224 226 234 238 241 246 243 242 243 242 242 238 223 216
245 257 255 259 266 267 267 282 318 39 20 349 334 306 307 304 290 268 258 254 263 282 345 47 63 103 150 162 158 174 181 181 190 195 199 198 197 197 194 192 189 190 192 194 196 195 197 197 198 199 199 203 203 202 204 205 203 203 203 201 204 208 210 212 210 209 211 209 214 216 204 206 214 214 221 229 230 228 229 233 238 234 226 226 232 239 236 234 245 245 241 249 248 237 238 238 231
233 243 250 253 257 263 261 268 286 290 269 243 237 281 288 280 283 287 274 270 267 280 320 330 307 133 158 169 162 181 190 189 199 200 201 202 202 200 198 195 193 192 191 195 195 195 197 197 196 197 199 202 202 201 202 207 207 203 203 203 203 208 210 212 210 207 211 211 212 213 206 207 215 215 217 228 233 224 218 222 229 228 218 222 228 234 225 220 238 241 230 243 250 236 231 236 239
242 246 250 253 255 265 268 262 268 262 257 265 233 244 263 259 271 274 267 277 282 286 303 302 291 198 179 193 178 185 193 195 201 203 204 206 205 203 202 201 198 194 193 195 195 197 199 197 196 197 199 202 202 200 201 206 208 204 202 203 204 206 209 210 210 208 211 214 213 212 209 209 213 216 216 222 227 219 212 213 220 221 216 218 218 223 221 212 227 239 228 228 237 238 237 244 250
240 245 248 250 252 263 272 269 270 266 249 265 256 243 254 250 258 266 253 255 265 271 268 264 269 253 218 204 199 197 195 198 200 202 205 206 204 202 202 203 201 199 198 198 197 198 201 198 198 199 199 201 202 201 201 204 206 206 203 204 205 205 207 209 210 210 213 217 216 214 214 213 212 213 216 219 221 219 215 213 214 215 217 221 219 221 223 212 214 231 235 230 232 238 243 249 254
252 251 254 251 248 249 259 259 260 266 249 246 255 248 250 244 237 251 239 234 246 244 247 246 247 249 233 207 211 213 204 203 200 200 204 202 202 202 202 202 203 204 202 200 200 201 201 201 201 202 200 199 201 201 202 203 204 208 207 205 206 204 207 210 210 210 213 218 220 220 221 220 218 215 217 221 221 219 218 218 214 214 218 224 224 223 225 218 211 219 229 234 235 237 239 243 248
262 264 272 266 264 261 257 256 251 257 250 240 259 261 253 246 237 244 247 246 256 254 253 253 249 251 241 214 211 217 214 212 202 195 199 201 202 204 204 202 202 203 203 202 203 202 201 203 204 204 202 199 200 202 203 204 204 208 210 208 207 206 207 210 210 209 211 217 221 224 226 225 224 219 217 220 223 220 219 222 220 217 219 223 226 226 225 222 218 219 219 226 236 237 236 234 236
257 258 268 269 271 264 250 251 251 247 246 228 265 277 254 242 242 244 249 243 241 247 249 253 252 246 236 220 216 215 210 211 204 195 199 204 204 206 209 207 203 202 204 205 204 204 203 204 206 204 203 201 201 202 203 204 204 207 210 210 209 208 209 211 211 209 210 216 219 223 225 225 225 222 216 215 222 223 220 223 224 221 220 222 227 228 226 222 223 225 220 219 228 233 234 232 230
252 250 253 264 266 257 242 242 246 239 240 210 202 262 242 233 237 233 235 232 230 235 236 243 249 245 232 221 224 222 207 204 205 204 204 205 205 209 214 212 207 204 203 203 204 207 206 205 206 205 203 204 204 203 203 204 204 207 209 210 210 209 210 213 214 213 212 214 218 221 224 225 226 224 217 213 218 223 222 223 224 223 220 221 227 230 229 225 225 229 227 224 227 231 236 239 236
245 248 242 245 254 254 232 226 230 229 225 198 201 245 243 240 247 241 235 224 221 228 228 233 241 242 235 226 227 230 216 201 204 210 209 206 206 209 215 215 210 207 203 202 205 207 208 207 206 205 205 206 207 205 204 205 205 206 208 210 211 210 210 212 214 216 215 215 217 220 223 225 224 223 219 216 216 219 221 223 223 223 221 221 227 230 231 231 228 230 233 232 232 235 241 245 244
233 241 238 223 238 256 242 226 220 222 217 194 205 242 241 239 249 249 249 237 227 227 220 221 231 234 230 224 224 227 222 207 204 208 212 212 208 208 213 213 210 209 206 206 206 206 206 207 206 206 207 207 208 208 206 206 207 207 208 210 212 212 212 213 214 216 217 217 218 219 222 224 223 222 221 217 215 215 220 222 221 222 223 224 227 228 230 232 232 231 234 235 235 237 242 247 248
225 232 242 229 234 248 244 229 218 220 219 197 205 225 223 226 242 242 243 246 246 249 243 230 226 234 236 234 233 229 221 209 202 205 211 213 210 210 212 211 209 210 211 210 207 205 204 205 205 206 208 209 209 210 209 208 208 208 209 209 211 212 214 215 216 216 217 218 220 219 220 223 224 223 222 219 216 214 217 220 219 219 222 225 227 226 227 231 231 230 233 234 233 234 238 244 247
224 230 238 242 244 252 251 231 211 212 218 212 209 221 232 242 274 285 275 261 249 246 252 244 228 228 235 239 239 234 223 211 199 203 208 210 212 214 213 212 210 209 212 212 210 208 206 205 206 207 209 210 209 211 211 211 210 210 211 211 212 213 215 217 217 217 217 219 220 220 219 221 224 224 221 220 218 216 216 217 217 218 219 221 225 227 229 231 230 229 231 233 231 230 231 234 238
212 223 231 240 240 246 250 255 241 208 212 223 225 230 236 238 251 260 260 263 261 250 244 244 235 229 230 236 240 237 233 227 208 204 206 208 211 215 215 214 211 209 211 213 212 212 209 207 208 209 208 208 207 209 212 212 212 212 213 214 215 215 216 217 217 217 218 218 220 221 219 220 222 223 221 219 218 217 216 215 216 217 216 218 222 225 227 230 230 229 228 230 232 232 232 233 236
223 229 233 237 236 238 235 240 250 227 218 228 233 242 244 240 241 240 235 242 256 261 257 251 246 239 234 237 244 242 238 243 222 208 205 204 207 211 213 212 212 211 210 212 212 211 210 208 208 209 208 206 205 205 208 209 210 212 214 215 216 217 216 216 217 218 218 219 219 219 219 219 220 221 221 219 219 219 217 215 214 215 216 218 220 222 224 226 228 229 227 228 230 233 236 237 236
257 261 252 245 245 248 237 231 223 209 223 232 230 246 251 247 249 249 245 240 244 252 253 249 247 246 238 229 234 237 237 245 231 210 202 203 204 205 207 209 211 211 211 211 211 211 211 209 209 209 208 206 204 203 204 205 205 207 211 214 216 217 216 216 217 218 219 221 219 218 218 217 217 218 219 219 219 219 217 215 214 214 215 218 221 222 223 225 227 229 229 230 229 229 232 234 231
252 261 268 264 256 260 264 265 247 211 223 230 227 243 249 248 252 253 255 254 248 246 247 245 244 245 244 233 230 233 235 241 235 212 202 205 203 199 201 204 206 208 211 211 210 212 212 210 211 211 208 207 207 207 206 207 208 208 211 214 216 216 217 217 218 220 221 222 221 220 220 218 216 216 217 218 218 217 215 214 214 215 215 218 221 223 223 225 226 225 226 228 228 229 230 230 225
241 246 255 260 256 267 273 270 276 268 255 251 248 255 255 251 251 249 248 252 255 253 252 250 244 244 244 241 235 231 231 231 233 224 211 212 209 201 199 201 205 210 212 212 213 213 211 211 212 212 210 211 212 212 210 211 213 214 215 216 216 216 218 220 221 223 223 222 223 223 222 219 216 216 217 218 218 218 216 214 215 216 217 217 219 221 222 223 223 222 222 223 225 228 231 229 222
232 235 241 248 245 253 262 253 253 257 254 256 268 277 272 265 260 252 244 248 253 251 254 255 248 244 241 240 238 229 227 226 226 227 222 218 212 205 201 202 207 211 211 211 212 212 211 212 213 212 213 215 216 216 216 216 216 217 218 219 219 219 221 223 224 225 225 224 224 224 223 220 218 217 218 219 219 219 219 218 216 216 216 217 218 219 220 221 221 220 220 220 221 221 225 226 221
229 228 234 243 240 242 250 254 266 275 265 246 254 280 268 252 253 255 246 247 252 248 253 257 253 250 247 243 242 236 233 229 225 226 223 218 211 207 208 209 211 211 210 211 213 212 212 213 215 214 214 217 219 220 219 218 216 215 215 216 220 222 223 223 222 223 223 223 224 224 223 220 218 218 219 220 221 221 220 219 217 216 216 216 217 218 220 221 220 220 219 219 219 218 220 222 219
239 228 229 242 252 256 258 268 281 281 272 255 249 278 268 223 225 243 237 235 244 242 243 249 249 251 251 246 246 243 241 239 238 236 232 227 223 216 213 213 213 212 212 215 217 216 214 215 216 215 215 218 221 222 220 216 213 212 209 208 210 212 215 218 218 218 217 218 221 222 221 219 218 219 219 220 222 221 220 218 216 215 215 215 216 217 219 220 219 220 221 219 220 219 219 219 217
242 226 216 228 240 252 260 272 280 259 261 301 87 263 275 256 228 240 241 237 239 235 236 240 239 242 244 244 245 241 237 239 242 243 240 240 239 234 227 219 215 215 218 221 221 219 216 216 217 216 216 217 220 222 219 214 212 212 210 210 210 210 213 219 222 221 219 219 220 220 220 219 219 219 219 220 221 221 221 219 217 216 216 216 216 217 218 219 220 221 221 220 221 220 217 218 218
241 232 207 222 226 236 243 244 249 254 279 304 220 241 281 278 252 236 248 254 253 248 244 244 239 236 236 236 238 237 231 228 234 240 237 238 242 242 242 237 228 224 223 224 223 219 218 219 220 219 217 218 220 220 216 213 212 213 213 214 215 216 219 224 224 223 223 222 221 220 220 220 219 219 219 220 221 222 222 220 219 217 217 217 216 217 219 219 220 220 220 220 221 220 218 219 219
240 138 72 288 265 258 258 244 245 251 262 259 235 211 260 271 257 209 233 249 252 254 253 254 255 248 243 239 233 229 225 224 229 232 230 230 234 237 241 242 240 236 230 227 225 223 222 222 222 220 219 220 221 219 216 215 215 215 214 215 217 221 225 228 226 223 223 222 222 223 221 220 220 220 220 221 221 222 222 222 220 218 218 218 217 218 220 220 220 219 219 219 219 220 219 220 220
240 171 130 310 346 357 347 331 304 291 249 245 234 197 213 267 267 209 225 247 241 244 244 242 244 242 243 243 235 225 222 225 228 226 228 228 229 235 241 243 242 240 237 234 231 227 224 224 222 220 220 222 222 221 218 217 218 217 215 216 219 223 226 228 226 224 224 222 222 223 222 221 220 220 220 221 221 221 222 222 219 219 220 220 219 220 221 221 220 220 219 219 219 219 219 219 221
234 235 220 217 133 347 337 356 27 336 255 242 235 215 209 260 272 204 211 249 244 244 250 243 237 235 236 237 234 227 218 217 224 226 229 233 234 237 242 245 245 243 240 238 236 231 226 225 224 222 223 223 223 222 220 220 221 219 218 218 221 225 227 226 223 223 223 221 221 222 222 221 221 221 221 220 220 221 221 221 220 220 219 220 221 221 221 221 221 220 219 220 221 220 219 218 220
206 220 224 224 166 183 296 321 154 244 245 237 233 225 220 246 265 231 206 244 244 249 256 253 251 252 247 236 227 224 220 216 220 226 229 234 240 242 243 247 248 244 241 240 239 237 232 229 226 225 225 225 224 224 222 223 223 222 221 222 224 227 228 226 222 223 224 221 221 222 221 221 221 221 220 220 221 220 219 220 221 220 219 219 220 220 221 221 221 221 220 219 220 221 220 218 218
193 198 202 216 201 190 214 208 212 233 246 241 223 219 221 240 259 260 252 250 252 263 268 267 264 266 263 249 238 230 225 221 218 222 228 233 242 246 246 249 247 242 242 243 242 240 237 233 228 226 226 226 226 226 225 224 224 224 224 224 226 228 229 228 226 226 227 224 224 222 219 219 218 218 219 220 222 220 218 219 220 220 220 219 219 219 220 221 220 220 220 218 219 220 220 219 219
194 192 189 200 196 214 224 218 230 241 249 241 211 214 224 221 248 251 251 251 250 255 264 269 267 268 273 265 262 258 241 233 230 234 243 247 252 255 251 247 242 238 241 243 244 242 240 235 230 228 229 229 228 227 226 226 226 226 226 227 228 229 230 231 230 230 230 228 226 224 222 219 218 217 219 222 223 221 220 221 221 221 222 221 219 219 219 220 220 220 220 220 219 221 221 221 221
196 193 194 205 196 213 223 214 228 244 263 234 194 207 213 180 224 239 237 244 242 234 241 246 248 254 259 252 249 253 250 246 249 256 259 259 257 253 248 243 236 236 240 242 243 242 240 236 232 230 231 232 231 230 229 228 228 229 229 230 230 231 232 233 233 233 232 231 229 227 226 223 221 221 222 224 224 222 221 222 222 222 223 223 221 221 220 220 220 220 221 222 222 222 222 223 223
193 182 198 218 213 219 240 257 238 244 288 245 188 222 229 201 261 260 239 248 242 217 221 231 238 244 244 243 242 240 240 243 250 257 259 259 257 249 246 244 240 242 245 246 246 245 243 241 238 236 236 237 236 234 232 231 232 232 231 231 232 232 233 234 234 235 235 234 232 231 230 228 226 226 225 225 224 223 222 222 222 223 224 223 223 222 221 220 220 220 221 223 224 224 222 223 224
177 184 204 218 223 223 252 284 276 269 269 244 207 248 258 276 284 272 262 268 263 237 228 227 233 238 232 232 238 238 238 242 246 250 253 255 253 247 249 253 254 254 255 254 254 252 251 250 248 244 242 242 242 240 238 236 235 234 234 233 233 233 234 235 235 236 236 237 236 235 234 232 230 229 228 227 225 224 223 223 222 223 223 223 223 223 221 220 220 220 220 222 223 224 223 224 224
200 191 194 183 30 62 188 260 257 249 253 239 226 248 253 247 258 239 237 252 254 248 244 236 231 233 232 232 234 237 235 239 247 258 268 265 261 264 269 273 274 270 263 259 259 259 258 257 254 251 249 248 248 247 244 241 239 238 237 236 236 235 236 237 238 238 238 238 237 236 235 234 233 231 230 229 226 224 223 223 222 221 221 221 222 222 221 219 218 218 220 221 222 222 223 225 225
226 226 175 152 138 202 183 216 235 235 250 250 240 250 248 234 248 259 248 253 258 254 254 257 251 248 247 236 228 235 240 248 279 319 335 334 339 353 355 347 329 306 290 281 278 275 270 267 263 260 258 256 256 254 252 248 244 241 241 240 239 238 238 239 240 240 239 238 237 236 235 234 233 232 231 229 227 224 222 221 221 220 219 219 219 220 220 218 217 217 218 220 222 221 222 225 226
221 236 220 150 182 207 194 214 240 241 258 265 249 246 238 226 233 248 259 272 290 300 324 335 330 325 305 272 244 301 299 350 27 32 23 16 13 6 357 338 322 316 313 308 300 292 285 279 273 269 267 266 264 261 257 254 249 246 244 244 243 241 240 241 241 240 239 238 238 237 236 234 233 232 231 229 227 224 222 221 220 219 217 217 218 218 218 218 217 216 217 219 220 220 220 223 226
199 210 218 205 189 180 205 238 216 224 249 254 251 248 239 237 247 260 298 323 344 8 14 347 337 355 8 26 34 26 36 44 44 37 13 354 339 327 323 320 318 317 316 317 313 304 295 289 284 280 277 273 270 266 262 258 254 250 247 247 246 245 243 242 242 241 240 239 239 238 237 236 234 232 231 229 227 225 223 221 220 218 217 216 216 216 216 216 216 216 217 218 219 218 219 221 223
187 198 204 209 207 191 223 238 212 195 216 226 253 259 235 236 323 22 13 359 12 30 25 2 357 8 14 15 10 11 31 36 29 6 335 326 320 310 306 309 311 310 311 315 316 310 303 298 295 291 285 280 276 274 269 264 258 254 251 249 248 247 246 244 243 242 240 240 239 238 237 236 235 234 232 230 229 227 225 223 220 219 217 217 217 216 216 215 214 215 216 217 218 217 218 220 221